Waarnemingen

Advertentie
Mijn weer
La Coruna, Spanje (8001): temperatuur & dauwpunt: 12.01.2020 11:00:00 - 18.01.2020 11:00:00 (CET)La Coruna, Spanje (8001): windsnelheid: 12.01.2020 11:00:00 - 18.01.2020 11:00:00 (CET)La Coruna, Spanje (8001): windrichting: 12.01.2020 11:00:00 - 18.01.2020 11:00:00 (CET)La Coruna, Spanje (8001): luchtdruk: 12.01.2020 11:00:00 - 18.01.2020 11:00:00 (CET)La Coruna, Spanje (8001): zicht: 12.01.2020 11:00:00 - 18.01.2020 11:00:00 (CET)La Coruna, Spanje (8001): neerslag: 12.01.2020 11:00:00 - 18.01.2020 11:00:00 (CET)
Datum & Tijd tt [°C] td [°C] ff [km/u] ff [kn] dd ppp [hPa] vv [km] rr [mm]
18.01.2020 11:00:00 - - - - - - - -
18.01.2020 10:00:00 12,4 9,6 16 9 Z 1019,1 22 -
18.01.2020 09:00:00 11,9 8,4 9 5 Z 1019,5 20 0,0
18.01.2020 08:00:00 11,8 7,7 15 8 Z 1019,3 20 0,0
18.01.2020 07:00:00 11,5 6,2 13 7 ZZO 1020,1 18 -
18.01.2020 06:00:00 10,9 5,2 9 5 ZO 1021,7 20 0,0
18.01.2020 05:00:00 10,6 4,3 11 6 ZO 1022,3 19 0,0
18.01.2020 04:00:00 10,8 4,3 11 6 ZO 1023,9 15 -
18.01.2020 03:00:00 11,2 3,9 15 8 ZZO 1025,1 19 0,2
18.01.2020 02:00:00 10,6 4,9 11 6 ZO 1025,9 20 0,0
18.01.2020 01:00:00 10,3 5,1 9 5 ZO 1026,6 15 -
18.01.2020 00:00:00 10,1 5,7 11 6 ZO 1028,0 20 0,0
17.01.2020 23:00:00 10,1 5,7 11 6 ZZO 1029,5 20 0,0
17.01.2020 22:00:00 10,1 6,2 9 5 Z 1030,0 18 -
17.01.2020 21:00:00 10,2 6,2 8 4 ZZO 1030,5 20 0,0
17.01.2020 20:00:00 10,5 5,9 5 3 ZO 1030,9 20 0,0
17.01.2020 19:00:00 10,6 6,2 5 3 Z 1031,1 20 -
17.01.2020 18:00:00 11,0 6,1 8 4 ZZO 1031,1 20 0,0
17.01.2020 17:00:00 11,2 5,7 9 5 ZW 1031,3 20 0,0
17.01.2020 16:00:00 11,4 5,3 9 5 ZW 1031,4 20 -
17.01.2020 15:00:00 11,9 6,4 13 7 W 1031,5 17 0,0
17.01.2020 14:00:00 12,9 6,5 13 7 WZW 1031,6 20 0,0
17.01.2020 13:00:00 12,4 6,2 13 7 WZW 1031,6 23 -
17.01.2020 12:00:00 11,0 5,9 16 9 ZW 1031,7 20 0,0
17.01.2020 11:00:00 9,3 5,7 11 6 ZW 1030,9 20 0,0
17.01.2020 10:00:00 9,1 5,6 13 7 ZW 1029,9 14 -
17.01.2020 09:00:00 8,8 5,7 13 7 WZW 1029,1 16 0,0
17.01.2020 08:00:00 8,9 6,0 16 9 ZW 1027,9 20 0,2
17.01.2020 07:00:00 9,3 6,4 16 9 ZW 1027,1 15 -
17.01.2020 06:00:00 9,4 6,3 18 10 ZW 1026,1 20 0,4
17.01.2020 05:00:00 9,9 6,8 11 6 WZW 1024,7 18 0,2
17.01.2020 04:00:00 10,4 7,3 15 8 ZW 1024,1 16 -
17.01.2020 03:00:00 10,4 6,9 16 9 ZW 1023,4 19 0,0
17.01.2020 02:00:00 10,2 6,5 13 7 ZW 1022,9 19 0,2
17.01.2020 01:00:00 10,1 7,5 13 7 WZW 1022,3 11 -
17.01.2020 00:00:00 9,8 7,4 15 8 ZZW 1021,5 20 2,0
16.01.2020 23:00:00 11,3 8,3 22 12 ZW 1020,7 18 0,0
16.01.2020 22:00:00 11,6 8,4 24 13 ZZW 1019,3 16 -
16.01.2020 21:00:00 11,5 8,2 11 6 ZZW 1018,7 20 0,0
16.01.2020 20:00:00 10,9 8,1 11 6 ZZW 1018,1 20 0,0
16.01.2020 19:00:00 11,1 8,8 11 6 ZZW 1016,9 20 -
16.01.2020 18:00:00 11,7 9,6 9 5 Z 1016,0 19 1,0
16.01.2020 17:00:00 11,7 9,8 15 8 WZW 1015,1 2,2 7,0
16.01.2020 16:00:00 11,3 10,2 9 5 WZW 1014,8 3,1 -
16.01.2020 15:00:00 12,9 11,0 15 8 Z 1013,5 3,6 5,0
16.01.2020 14:00:00 12,7 10,4 15 8 ZZW 1015,1 3,0 5,0
16.01.2020 13:00:00 13,4 10,2 24 13 ZW 1014,8 5 -
16.01.2020 12:00:00 13,8 12,5 9 5 ZZW 1014,3 4,1 9,0
16.01.2020 11:00:00 15,2 12,3 18 10 ZZW 1015,0 3,0 3,0
16.01.2020 10:00:00 15,2 12,1 16 9 Z 1014,2 5 -
16.01.2020 09:00:00 16,5 11,0 22 12 ZZW 1014,1 20 0,0
16.01.2020 08:00:00 16,0 11,6 16 9 Z 1013,7 20 0,0
16.01.2020 07:00:00 16,3 11,4 18 10 Z 1013,5 18 -
16.01.2020 06:00:00 16,2 12,0 21 11 Z 1013,7 16 0,0
16.01.2020 05:00:00 15,7 12,3 24 13 Z 1014,5 19 0,2
16.01.2020 04:00:00 15,5 13,0 16 9 Z 1015,0 18 -
16.01.2020 03:00:00 14,8 11,4 18 10 Z 1015,0 18 0,0
16.01.2020 02:00:00 14,9 9,5 21 11 Z 1016,0 20 0,0
16.01.2020 01:00:00 15,0 8,9 28 15 Z 1016,5 20 -
16.01.2020 00:00:00 14,6 10,8 16 9 Z 1017,6 20 0,0
15.01.2020 23:00:00 12,6 8,5 4 2 Z 1017,5 20 0,0
15.01.2020 22:00:00 12,6 8,1 9 5 ZO 1017,8 18 -
15.01.2020 21:00:00 12,1 8,4 5 3 ZO 1018,6 20 0,0
15.01.2020 20:00:00 12,3 8,2 2 1 OZO 1019,1 16 0,0
15.01.2020 19:00:00 13,0 7,7 5 3 Z 1019,0 20 -
15.01.2020 18:00:00 13,7 7,0 9 5 ZZW 1019,2 20 0,0
15.01.2020 17:00:00 13,2 6,3 9 5 Z 1018,9 20 0,0
15.01.2020 16:00:00 13,4 7,4 5 3 WNW 1018,7 16 -
15.01.2020 15:00:00 13,5 6,8 8 4 WNW 1019,1 19 0,0
15.01.2020 14:00:00 14,6 6,4 5 3 ZZW 1019,2 20 0,0
15.01.2020 13:00:00 14,1 5,7 8 4 ZZW 1019,4 22 -
15.01.2020 12:00:00 13,4 7,4 8 4 ZW 1019,6 20 0,0
15.01.2020 11:00:00 11,6 7,3 9 5 ZW 1018,9 18 0,0
15.01.2020 10:00:00 11,3 8,3 11 6 ZW 1017,6 20 -
15.01.2020 09:00:00 11,1 8,3 8 4 W 1016,3 14 0,0
15.01.2020 08:00:00 11,2 8,8 13 7 W 1014,6 15 0,0
15.01.2020 07:00:00 11,5 10,1 15 8 W 1012,9 18 -
15.01.2020 06:00:00 11,6 10,5 18 10 WZW 1011,4 4,5 2,0
15.01.2020 05:00:00 13,5 10,5 26 14 WZW 1010,3 11 0,0
15.01.2020 04:00:00 14,1 10,3 29 16 ZZW 1008,3 18 -
15.01.2020 03:00:00 14,6 11,4 21 11 Z 1007,2 6 0,8
15.01.2020 02:00:00 15,1 10,1 26 14 Z 1006,9 20 0,2
15.01.2020 01:00:00 14,9 10,7 29 16 ZZW 1008,0 15 -
15.01.2020 00:00:00 15,7 9,8 26 14 ZZW 1008,5 19 0,0
14.01.2020 23:00:00 15,0 9,8 26 14 Z 1008,1 20 0,0
14.01.2020 22:00:00 14,5 10,1 21 11 Z 1009,1 18 -
14.01.2020 21:00:00 14,1 10,1 24 13 Z 1009,3 20 0,0
14.01.2020 20:00:00 14,6 10,2 26 14 Z 1009,8 14 0,0
14.01.2020 19:00:00 15,0 9,6 26 14 ZZW 1009,8 20 -
14.01.2020 18:00:00 15,1 10,3 29 16 ZZW 1010,2 16 0,0
14.01.2020 17:00:00 15,2 10,0 29 16 ZZW 1010,1 20 0,0
14.01.2020 16:00:00 16,3 9,2 31 17 ZZW 1010,0 20 -
14.01.2020 15:00:00 16,1 8,8 34 18 ZZW 1010,3 20 0,0
14.01.2020 14:00:00 15,5 8,7 31 17 ZZW 1010,7 20 0,0
14.01.2020 13:00:00 15,0 8,9 26 14 ZZW 1011,6 25 -
14.01.2020 12:00:00 14,5 9,3 26 14 Z 1012,3 20 0,0
14.01.2020 11:00:00 14,1 9,3 24 13 Z 1012,4 20 0,0
14.01.2020 10:00:00 14,2 9,6 22 12 Z 1012,8 25 -
14.01.2020 09:00:00 14,2 9,2 21 11 Z 1012,4 20 0,0
14.01.2020 08:00:00 14,0 9,6 26 14 ZZW 1012,1 20 0,0
14.01.2020 07:00:00 13,7 10,1 26 14 Z 1012,0 15 -
14.01.2020 06:00:00 13,5 9,9 16 9 Z 1011,8 20 0,0
14.01.2020 05:00:00 13,4 9,6 22 12 ZZW 1012,0 20 0,0
14.01.2020 04:00:00 13,4 9,8 26 14 Z 1012,1 15 -
14.01.2020 03:00:00 13,3 9,9 22 12 Z 1012,3 20 0,0
14.01.2020 02:00:00 13,7 9,9 24 13 Z 1013,0 20 0,0
14.01.2020 01:00:00 13,6 9,6 24 13 ZZW 1013,6 15 -
14.01.2020 00:00:00 12,9 9,9 16 9 Z 1013,9 20 0,0
13.01.2020 23:00:00 12,4 9,8 15 8 Z 1014,3 20 0,0
13.01.2020 22:00:00 12,1 9,1 18 10 Z 1014,6 15 -
13.01.2020 21:00:00 11,7 8,7 22 12 Z 1014,9 20 0,0
13.01.2020 20:00:00 11,8 8,3 28 15 Z 1015,1 20 0,0
13.01.2020 19:00:00 11,4 8,1 24 13 Z 1015,3 20 -
13.01.2020 18:00:00 11,7 7,6 26 14 ZZW 1015,6 20 0,0
13.01.2020 17:00:00 12,1 7,2 28 15 Z 1015,4 20 0,0
13.01.2020 16:00:00 12,4 7,1 28 15 Z 1016,1 20 -
13.01.2020 15:00:00 12,7 6,9 28 15 ZZW 1017,1 20 0,2
13.01.2020 14:00:00 12,2 6,7 28 15 ZZW 1017,9 20 0,0
13.01.2020 13:00:00 12,0 7,3 26 14 ZZW 1019,2 20 -
13.01.2020 12:00:00 11,3 7,6 28 15 ZZW 1019,7 20 0,0
13.01.2020 11:00:00 10,9 7,2 28 15 Z 1020,0 20 0,0
13.01.2020 10:00:00 10,4 7,1 24 13 Z 1020,7 18 -
13.01.2020 09:00:00 10,6 7,3 22 12 Z 1020,9 20 0,0
13.01.2020 08:00:00 10,6 7,5 18 10 ZZW 1021,1 20 0,0
13.01.2020 07:00:00 10,8 7,5 8 4 Z 1022,1 15 -
13.01.2020 06:00:00 10,7 7,0 13 7 Z 1022,8 20 0,0
13.01.2020 05:00:00 10,9 7,9 5 3 ZZO 1024,0 19 0,0
13.01.2020 04:00:00 10,9 7,9 8 4 Z 1024,9 14 -
13.01.2020 03:00:00 11,0 8,0 9 5 Z 1025,3 19 0,0
13.01.2020 02:00:00 11,2 8,1 5 3 ZZW 1026,1 20 0,0
13.01.2020 01:00:00 11,2 8,1 5 3 ZZW 1027,3 14 -
13.01.2020 00:00:00 11,5 8,4 5 3 ZZO 1028,1 19 0,0
12.01.2020 23:00:00 11,7 9,3 2 1 ZZW 1028,4 16 0,0
12.01.2020 22:00:00 12,1 8,6 5 3 Z 1028,6 14 -
12.01.2020 21:00:00 12,2 8,7 5 3 ZZO 1029,0 20 0,0
12.01.2020 20:00:00 12,2 10,4 2 1 ZO 1029,2 14 0,0
12.01.2020 19:00:00 12,2 10,8 4 2 W 1029,4 3,4 -
12.01.2020 18:00:00 12,6 10,3 4 2 W 1029,4 18 0,0
12.01.2020 17:00:00 12,8 9,8 2 1 ZO 1029,6 16 0,0
12.01.2020 16:00:00 12,7 9,5 5 3 ZZO 1029,5 16 -
12.01.2020 15:00:00 12,2 10,1 9 5 ZZO 1030,0 11 0,0
12.01.2020 14:00:00 12,6 9,4 8 4 Z 1030,8 14 0,0
12.01.2020 13:00:00 11,7 8,7 5 3 ZZO 1031,7 18 -
12.01.2020 12:00:00 10,6 8,4 5 3 ZO 1032,5 15 0,0
12.01.2020 11:00:00 9,3 7,7 8 4 ZO 1032,4 - 0,0

tt = temperatuur
td = dauwpunt
ff = windsnelheid
dd = windrichting
ppp = luchtdruk
vv = zicht
rr = neerslag

Weerstations in de omgeving